sat.trackr.live / text

‹ back to catalog

STARLINK-1540

NORAD 46051 · 2020-055AA

PAYLOAD ACTIVE UNKNOWN

§ Identity

Operator
Country
US
Launch date
2020-08-07
Launch site
AFETR
Launch vehicle
Mass (kg)
RCS (m²)

Purposes: comms

External: N2YO · Heavens-Above · Gunter

§ Orbital elements

Epoch: 2026-09-20T01:34:12.464256Z

Period
94.01 min
Inclination
53.1594°
Eccentricity
0.0001605
Mean motion
15.31695274 rev/d
Perigee alt
469.7 km
Apogee alt
471.9 km
Semi-major
6,848.9 km
B*
1.3622e-5
RAAN
289.6161°
Arg perigee
95.8587°
Mean anomaly
264.2598°
Rev number
33,886

§ Raw data

STARLINK-15401 46051U 20055AA  26263.06542204  .00000057  00000+0  13622-4 0  99992 46051  53.1594 289.6161 0001605  95.8587 264.2598 15.31695274338869

JSON: /api/v1/satellites/46051 · /tle

For live sub-satellite position, see the globe view (requires WebGL).

§ Visibility from observer

Set your observer location to see the next 7 days of passes ≥ 10°. The values pass through the URL so the page stays shareable.

No JS? Fill the form by hand. The geolocation button needs JavaScript.